When you browse on this site, cookies collect data to enhance your experience and personalize the content and advertising you see.
Visit our Privacy Policy to learn more. By continuing to use the site, you agree to this use of cookies and data.
  • In Latvia
  • List of Countries
  • For 7 days
  • Water Temperature
  • Weather Map
  • Weather Widgets
  • user-avatar
    Login

    Hourly Weather Thun

    Today, 16 September, Monday

    Time Temperature Precipitation Wind Pressure Humidity
    00:00 +19°C° 0 mm 1 mps 708 mmHg 80%
    01:00 +18°C° 0 mm 1 mps 708 mmHg 79%
    02:00 +18°C° 0 mm 1 mps 708 mmHg 80%
    03:00 +18°C° 0 mm 1 mps 708 mmHg 80%
    04:00 +18°C° 0 mm 1 mps 707 mmHg 80%
    05:00 +18°C° 0 mm 1 mps 707 mmHg 80%
    06:00 +18°C° 0 mm 1 mps 707 mmHg 80%
    07:00 +19°C° 0 mm 1 mps 707 mmHg 80%
    08:00 +21°C° 0 mm 1 mps 707 mmHg 73%
    09:00 +23°C° 0 mm 1 mps 708 mmHg 66%
    10:00 +26°C° 0 mm 1 mps 708 mmHg 59%
    11:00 +26°C° 0.1 mm 1 mps 708 mmHg 57%
    12:00 +27°C° 0.1 mm 1 mps 708 mmHg 56%
    13:00 +28°C° 0.1 mm 1 mps 708 mmHg 55%
    14:00 +27°C° 0.4 mm 1 mps 707 mmHg 58%
    15:00 +27°C° 0.4 mm 1 mps 707 mmHg 61%
    16:00 +26°C° 0.4 mm 1 mps 706 mmHg 63%
    17:00 +24°C° 0.4 mm 1 mps 706 mmHg 71%
    18:00 +22°C° 0.4 mm 1 mps 706 mmHg 79%
    19:00 +18°C° 0.4 mm 0 mps 705 mmHg 87%
    20:00 +19°C° 0 mm 1 mps 705 mmHg 88%
    21:00 +19°C° 0 mm 1 mps 706 mmHg 88%
    22:00 +18°C° 0 mm 1 mps 706 mmHg 89%
    23:00 +18°C° 0 mm 1 mps 706 mmHg 89%

    Tomorrow, 17 September, Tuesday

    Time Temperature Precipitation Wind Pressure Humidity
    00:00 +18°C° 0 mm 1 mps 706 mmHg 89%
    01:00 +16°C° 0 mm 1 mps 706 mmHg 89%
    02:00 +16°C° 0 mm 1 mps 705 mmHg 89%
    03:00 +16°C° 0 mm 1 mps 705 mmHg 89%
    04:00 +16°C° 0 mm 1 mps 705 mmHg 89%
    05:00 +16°C° 0 mm 1 mps 705 mmHg 89%
    06:00 +16°C° 0 mm 1 mps 705 mmHg 88%
    07:00 +16°C° 0 mm 1 mps 705 mmHg 88%
    08:00 +19°C° 0 mm 1 mps 705 mmHg 82%
    09:00 +21°C° 0 mm 1 mps 706 mmHg 76%
    10:00 +24°C° 0 mm 1 mps 706 mmHg 69%
    11:00 +24°C° 0 mm 1 mps 706 mmHg 67%
    12:00 +25°C° 0 mm 2 mps 705 mmHg 64%
    13:00 +25°C° 0 mm 2 mps 705 mmHg 61%
    14:00 +25°C° 0.1 mm 2 mps 705 mmHg 62%
    15:00 +24°C° 0.1 mm 2 mps 705 mmHg 63%
    16:00 +24°C° 0.1 mm 2 mps 704 mmHg 64%
    17:00 +21°C° 0 mm 2 mps 704 mmHg 72%
    18:00 +20°C° 0 mm 1 mps 704 mmHg 81%
    19:00 +18°C° 0 mm 1 mps 704 mmHg 89%
    20:00 +16°C° 0 mm 1 mps 704 mmHg 91%
    21:00 +15°C° 0 mm 1 mps 704 mmHg 93%
    22:00 +14°C° 0 mm 1 mps 705 mmHg 95%
    23:00 +14°C° 0 mm 1 mps 705 mmHg 94%

    Day after tomorrow, 18 September, Wednesday

    Time Temperature Precipitation Wind Pressure Humidity
    00:00 +14°C° 0 mm 1 mps 705 mmHg 93%
    01:00 +14°C° 0 mm 2 mps 705 mmHg 92%
    02:00 +14°C° 0 mm 2 mps 705 mmHg 90%
    03:00 +13°C° 0 mm 2 mps 704 mmHg 87%
    04:00 +13°C° 0 mm 2 mps 704 mmHg 85%
    05:00 +13°C° 0 mm 2 mps 704 mmHg 85%
    06:00 +12°C° 0 mm 2 mps 705 mmHg 86%
    07:00 +12°C° 0 mm 1 mps 705 mmHg 86%
    08:00 +14°C° 0 mm 2 mps 705 mmHg 81%
    09:00 +15°C° 0 mm 2 mps 705 mmHg 75%
    10:00 +17°C° 0 mm 2 mps 705 mmHg 69%
    11:00 +18°C° 0 mm 2 mps 705 mmHg 67%
    12:00 +19°C° 0 mm 3 mps 705 mmHg 64%
    13:00 +20°C° 0 mm 3 mps 705 mmHg 62%
    14:00 +19°C° 0 mm 3 mps 705 mmHg 64%
    15:00 +19°C° 0 mm 3 mps 705 mmHg 66%
    16:00 +19°C° 0 mm 3 mps 705 mmHg 67%
    17:00 +17°C° 0 mm 3 mps 705 mmHg 73%
    18:00 +15°C° 0 mm 2 mps 705 mmHg 79%
    19:00 +14°C° 0 mm 2 mps 705 mmHg 85%
    20:00 +13°C° 0 mm 2 mps 705 mmHg 87%
    21:00 +12°C° 0 mm 1 mps 706 mmHg 88%
    22:00 +11°C° 0 mm 1 mps 706 mmHg 90%
    23:00 +11°C° 0 mm 1 mps 706 mmHg 91%

    19 September, Thursday

    Time Temperature Precipitation Wind Pressure Humidity
    00:00 +10°C° 0 mm 1 mps 706 mmHg 91%
    01:00 +10°C° 0 mm 1 mps 706 mmHg 92%
    02:00 +10°C° 0 mm 1 mps 706 mmHg 92%
    03:00 +9°C° 0 mm 1 mps 705 mmHg 93%
    04:00 +9°C° 0 mm 1 mps 705 mmHg 93%
    05:00 +9°C° 0 mm 1 mps 705 mmHg 92%
    06:00 +9°C° 0 mm 1 mps 706 mmHg 92%
    07:00 +10°C° 0 mm 1 mps 706 mmHg 91%
    08:00 +11°C° 0 mm 1 mps 706 mmHg 84%
    09:00 +13°C° 0 mm 2 mps 707 mmHg 77%
    10:00 +15°C° 0 mm 2 mps 707 mmHg 69%
    11:00 +16°C° 0 mm 2 mps 707 mmHg 66%
    12:00 +17°C° 0 mm 3 mps 707 mmHg 63%
    13:00 +18°C° 0 mm 3 mps 707 mmHg 59%
    14:00 +18°C° 0 mm 3 mps 707 mmHg 61%
    15:00 +17°C° 0 mm 3 mps 707 mmHg 62%
    16:00 +17°C° 0 mm 3 mps 707 mmHg 63%
    17:00 +14°C° 0 mm 3 mps 707 mmHg 71%
    18:00 +13°C° 0 mm 2 mps 707 mmHg 79%
    19:00 +10°C° 0 mm 2 mps 707 mmHg 87%
    20:00 +10°C° 0 mm 2 mps 707 mmHg 88%
    21:00 +11°C° 0 mm 1 mps 707 mmHg 90%
    22:00 +10°C° 0 mm 1 mps 708 mmHg 92%
    23:00 +10°C° 0 mm 1 mps 707 mmHg 93%

    20 September, Friday

    Time Temperature Precipitation Wind Pressure Humidity
    00:00 +10°C° 0 mm 1 mps 707 mmHg 93%
    01:00 +10°C° 0 mm 1 mps 707 mmHg 94%
    02:00 +10°C° 0 mm 1 mps 707 mmHg 94%
    03:00 +9°C° 0 mm 1 mps 707 mmHg 93%
    04:00 +9°C° 0 mm 1 mps 707 mmHg 93%
    05:00 +10°C° 0 mm 1 mps 707 mmHg 92%
    06:00 +10°C° 0 mm 1 mps 707 mmHg 92%
    07:00 +10°C° 0 mm 1 mps 707 mmHg 91%
    08:00 +12°C° 0 mm 1 mps 708 mmHg 82%
    09:00 +15°C° 0 mm 1 mps 708 mmHg 73%
    10:00 +18°C° 0 mm 1 mps 708 mmHg 64%
    11:00 +19°C° 0 mm 1 mps 708 mmHg 62%
    12:00 +19°C° 0 mm 2 mps 708 mmHg 59%
    13:00 +20°C° 0 mm 2 mps 708 mmHg 57%
    14:00 +20°C° 0 mm 2 mps 708 mmHg 59%
    15:00 +20°C° 0 mm 2 mps 708 mmHg 62%
    16:00 +19°C° 0 mm 2 mps 707 mmHg 64%
    17:00 +18°C° 0 mm 1 mps 707 mmHg 73%
    18:00 +15°C° 0 mm 1 mps 707 mmHg 81%
    19:00 +13°C° 0 mm 1 mps 707 mmHg 90%
    20:00 +13°C° 0 mm 1 mps 707 mmHg 90%
    21:00 +13°C° 0 mm 1 mps 707 mmHg 90%
    22:00 +12°C° 0 mm 1 mps 707 mmHg 90%
    23:00 +12°C° 0 mm 1 mps 707 mmHg 88%

    21 September, Saturday

    Time Temperature Precipitation Wind Pressure Humidity
    00:00 +12°C° 0 mm 1 mps 707 mmHg 87%
    01:00 +12°C° 0 mm 1 mps 707 mmHg 86%
    02:00 +12°C° 0 mm 1 mps 707 mmHg 85%
    03:00 +12°C° 0 mm 1 mps 707 mmHg 83%
    04:00 +12°C° 0 mm 1 mps 707 mmHg 82%
    05:00 +12°C° 0 mm 1 mps 707 mmHg 81%
    06:00 +12°C° 0 mm 1 mps 707 mmHg 79%
    07:00 +12°C° 0 mm 1 mps 707 mmHg 78%
    08:00 +15°C° 0 mm 1 mps 707 mmHg 70%
    09:00 +19°C° 0 mm 1 mps 708 mmHg 62%
    10:00 +22°C° 0 mm 1 mps 708 mmHg 54%
    11:00 +23°C° 0 mm 1 mps 708 mmHg 51%
    12:00 +24°C° 0 mm 1 mps 708 mmHg 49%
    13:00 +25°C° 0 mm 1 mps 708 mmHg 46%
    14:00 +25°C° 0 mm 1 mps 707 mmHg 48%
    15:00 +25°C° 0 mm 1 mps 707 mmHg 51%
    16:00 +25°C° 0 mm 1 mps 707 mmHg 53%
    17:00 +21°C° 0 mm 2 mps 706 mmHg 62%
    18:00 +19°C° 0 mm 2 mps 706 mmHg 71%
    19:00 +16°C° 0 mm 2 mps 706 mmHg 80%
    20:00 +16°C° 0 mm 2 mps 706 mmHg 78%
    21:00 +15°C° 0 mm 2 mps 706 mmHg 76%
    22:00 +14°C° 0 mm 2 mps 707 mmHg 75%
    23:00 +14°C° 0 mm 2 mps 707 mmHg 73%
    Show more